FW8702 Weather Reports


time (UTC)temp
C
wind
direction
speed
KPH
gust
KPH
rain 1hr
cm
rain 24hr
cm
rain mn
cm
humidity
%
barometer
mb
20260831033052 20 293 1.6 6.4 0.00 0.00 0.00 79 1016.6
20260831031552 21 231 0.0 9.7 0.00 0.00 0.00 77 1016.4
20260831030026 21 319 3.2 9.7 0.00 0.00 0.00 76 1016.3
20260831024509 21 260 1.6 6.4 0.00 0.00 0.00 76 1016.4
20260831023047 21 40 3.2 8.0 0.00 0.00 0.00 79 1016.4
20260831021521 21 285 1.6 9.7 0.00 0.00 0.00 80 1016.6
20260831020029 20 257 1.6 4.8 0.00 0.00 0.00 82 1016.5
20260831014539 20 279 1.6 6.4 0.00 0.00 0.00 82 1016.5
20260831013056 20 275 0.0 3.2 0.00 0.00 0.00 81 1016.7
20260831011540 21 79 0.0 3.2 0.00 0.00 0.00 80 1016.5
20260831010003 21 341 0.0 3.2 0.00 0.00 0.00 79 1016.8
20260831004557 21 325 6.4 16.1 0.00 0.00 0.00 78 1016.5
20260831003035 21 284 0.0 3.2 0.00 0.00 0.00 81 1016.6
20260831001523 21 352 0.0 6.4 0.00 0.00 0.00 81 1016.6
20260831000035 21 26 0.0 1.6 0.00 0.00 0.00 81 1016.7
20260830234515 21 297 1.6 6.4 0.00 0.00 0.00 82 1016.8
20260830233040 20 354 0.0 3.2 0.00 0.00 0.00 82 1016.8
20260830231605 21 285 1.6 4.8 0.00 0.00 0.00 82 1016.9
20260830230021 21 311 0.0 1.6 0.00 0.00 0.00 82 1016.8
20260830224537 21 344 0.0 3.2 0.00 0.00 0.00 82 1016.8
20260830223027 21 338 0.0 3.2 0.00 0.00 0.00 82 1016.8
20260830221559 20 346 0.0 1.6 0.00 0.00 0.00 82 1017.0
20260830220037 20 285 0.0 1.6 0.00 0.00 0.00 82 1016.9
20260830214505 20 283 0.0 1.6 0.00 0.00 0.00 82 1016.8
20260830213013 20 283 0.0 0.0 0.00 0.00 0.00 82 1016.7
20260830211559 20 283 0.0 1.6 0.00 0.00 0.00 82 1016.6
20260830210056 20 288 0.0 0.0 0.00 0.00 0.00 82 1016.5
20260830204542 20 288 0.0 0.0 0.00 0.00 0.00 81 1016.5
20260830203044 20 296 0.0 0.0 0.00 0.00 0.00 81 1016.4
20260830201526 21 296 0.0 3.2 0.00 0.00 0.00 80 1016.4
20260830200041 21 297 0.0 0.0 0.00 0.00 0.00 80 1016.4
20260830194540 21 297 0.0 1.6 0.00 0.00 0.00 79 1016.4
20260830193056 21 301 0.0 0.0 0.00 0.00 0.00 78 1016.3
20260830191505 22 305 0.0 1.6 0.00 0.00 0.00 77 1016.1
20260830190056 22 305 0.0 1.6 0.00 0.00 0.00 77 1016.0
20260830184500 22 285 0.0 3.2 0.00 0.00 0.00 77 1016.0
20260830183051 22 280 0.0 0.0 0.00 0.00 0.00 76 1015.6
20260830181511 23 280 0.0 0.0 0.00 0.00 0.00 75 1015.6
20260830180052 23 283 0.0 1.6 0.00 0.00 0.00 72 1015.4
20260830174524 25 280 1.6 3.2 0.00 0.00 0.00 69 1015.3
20260830173109 27 150 0.0 0.0 0.00 0.00 0.00 58 1015.1
20260830171605 28 150 0.0 0.0 0.00 0.00 0.00 52 1015.1
20260830170018 28 242 0.0 0.0 0.00 0.00 0.00 50 1015.0
20260830164554 29 242 1.6 3.2 0.00 0.00 0.00 47 1015.1
20260830163028 29 218 1.6 6.4 0.00 0.00 0.00 46 1015.2
20260830161549 30 212 0.0 1.6 0.00 0.00 0.00 48 1015.2
20260830160021 30 237 0.0 8.0 0.00 0.00 0.00 49 1015.3
20260830154603 30 219 0.0 6.4 0.00 0.00 0.00 49 1015.3
20260830153033 29 225 0.0 8.0 0.00 0.00 0.00 46 1015.3
20260830151523 29 202 1.6 9.7 0.00 0.00 0.00 50 1015.4
20260830150048 29 282 0.0 9.7 0.00 0.00 0.00 51 1015.5
20260830144608 29 223 4.8 11.3 0.00 0.00 0.00 51 1015.6
20260830143026 29 215 3.2 12.9 0.00 0.00 0.00 51 1015.6
20260830141520 28 277 1.6 12.9 0.00 0.00 0.00 54 1015.7
20260830140045 29 262 3.2 8.0 0.00 0.00 0.00 53 1015.8
20260830134556 30 167 0.0 6.4 0.00 0.00 0.00 50 1016.1
20260830133011 28 249 3.2 8.0 0.00 0.00 0.00 54 1016.1
20260830131544 28 108 1.6 12.9 0.00 0.00 0.00 54 1016.1
20260830130039 28 232 0.0 12.9 0.00 0.00 0.00 53 1016.4
20260830124536 28 232 4.8 14.5 0.00 0.00 0.00 52 1016.5
20260830123001 28 197 3.2 8.0 0.00 0.00 0.00 55 1016.5
20260830121506 28 219 1.6 9.7 0.00 0.00 0.00 59 1016.8
20260830120056 28 202 3.2 11.3 0.00 0.00 0.00 58 1016.7
20260830114505 27 123 1.6 9.7 0.00 0.00 0.00 59 1016.8
20260830113050 27 228 1.6 12.9 0.00 0.00 0.00 59 1016.8
20260830111546 28 237 0.0 9.7 0.00 0.00 0.00 59 1016.8
20260830110105 27 128 1.6 8.0 0.00 0.00 0.00 58 1016.9
20260830104609 27 173 4.8 9.7 0.00 0.00 0.00 57 1017.1
20260830103105 26 128 0.0 8.0 0.00 0.00 0.00 62 1017.3
20260830101501 26 317 0.0 9.7 0.00 0.00 0.00 62 1017.6
20260830100046 26 233 1.6 6.4 0.00 0.00 0.00 59 1017.7
20260830094512 26 146 0.0 6.4 0.00 0.00 0.00 60 1017.7
20260830093050 25 229 0.0 6.4 0.00 0.00 0.00 62 1017.7
20260830091559 25 352 1.6 4.8 0.00 0.00 0.00 63 1017.7
20260830090043 24 253 1.6 6.4 0.00 0.00 0.00 65 1017.9
20260830084505 25 265 3.2 6.4 0.00 0.00 0.00 64 1017.9
20260830083026 24 268 0.0 6.4 0.00 0.00 0.00 67 1017.9
20260830081505 23 287 1.6 6.4 0.00 0.00 0.00 67 1017.8
20260830080016 23 284 4.8 9.7 0.00 0.00 0.00 67 1017.9
20260830074528 23 277 0.0 8.0 0.00 0.00 0.00 67 1017.7
20260830073033 22 293 3.2 6.4 0.00 0.00 0.00 68 1017.9
20260830071619 22 337 0.0 3.2 0.00 0.00 0.00 71 1017.8
20260830070006 21 352 1.6 4.8 0.00 0.00 0.00 75 1017.7
20260830064525 21 309 0.0 3.2 0.00 0.00 0.00 77 1017.7
20260830063029 20 296 0.0 3.2 0.00 0.00 0.00 80 1017.7
20260830061602 20 280 0.0 4.8 0.00 0.00 0.00 80 1017.7
20260830060052 18 325 0.0 4.8 0.00 0.00 0.00 82 1017.7
20260830054506 18 297 0.0 3.2 0.00 0.00 0.00 82 1017.4
20260830053046 17 285 0.0 3.2 0.00 0.00 0.00 82 1017.4
20260830051557 17 342 0.0 1.6 0.00 0.00 0.00 82 1017.2
20260830050051 17 13 0.0 4.8 0.00 0.00 0.00 83 1017.0
20260830044610 16 251 0.0 3.2 0.00 0.00 0.00 83 1016.9
20260830043023 17 244 1.6 4.8 0.00 0.00 0.00 83 1016.8
20260830041506 16 276 0.0 0.0 0.00 0.00 0.00 84 1016.7
20260830040107 16 273 0.0 3.2 0.00 0.00 0.00 83 1016.8
20260830034539 17 266 0.0 4.8 0.00 0.00 0.00 82 1016.6